Location: Newark
(39.0622°N, 106.5590°E)
Time: 15:54:37
(UTC+00:00)

Vanguard 2 Rocket - Pass Details

Date: 25 January 2020
Orbit: 554 x 3326 km, 32.9° (Epoch: 16 February)

Event Time Altitude Azimuth Distance (km) Brightness Sun altitude
Rises 22:07:10 0° 242° (WSW) 2,756 - -23.0°
Reaches altitude 10° 22:09:16 10° 232° (SW) 1,949 - -22.6°
Exits shadow 22:11:31 27° 208° (SSW) 1,274 7.4 -22.2°
Maximum altitude 22:13:14 37° 164° (SSE) 1,131 7.5 -21.8°
Drops below altitude 10° 22:18:55 10° 99° (E) 2,799 10.6 -20.8°
Sets 22:22:32 0° 92° (E) 4,176 11.9 -20.1°
